Hourly Weather Mongu

Today, 2 July, Thursday

Time Temperature Precipitation Wind Pressure Humidity
00:00 +16°C° 0 mm 3 mps 676 mmHg 54%
01:00 +14°C° 0 mm 3 mps 676 mmHg 58%
02:00 +13°C° 0 mm 3 mps 675 mmHg 59%
03:00 +13°C° 0 mm 3 mps 675 mmHg 63%
04:00 +12°C° 0 mm 3 mps 675 mmHg 68%
05:00 +12°C° 0 mm 3 mps 675 mmHg 72%
06:00 +12°C° 0 mm 3 mps 676 mmHg 67%
07:00 +13°C° 0 mm 4 mps 677 mmHg 63%
08:00 +14°C° 0 mm 4 mps 677 mmHg 59%
09:00 +18°C° 0 mm 4 mps 678 mmHg 49%
10:00 +21°C° 0 mm 4 mps 678 mmHg 39%
11:00 +26°C° 0 mm 4 mps 679 mmHg 30%
12:00 +27°C° 0 mm 4 mps 678 mmHg 27%
13:00 +28°C° 0 mm 3 mps 678 mmHg 25%
14:00 +29°C° 0 mm 3 mps 677 mmHg 22%
15:00 +29°C° 0 mm 3 mps 677 mmHg 22%
16:00 +29°C° 0 mm 3 mps 676 mmHg 21%
17:00 +28°C° 0 mm 3 mps 676 mmHg 21%
18:00 +25°C° 0 mm 2 mps 676 mmHg 26%
19:00 +21°C° 0 mm 2 mps 676 mmHg 31%
20:00 +18°C° 0 mm 2 mps 676 mmHg 36%
21:00 +17°C° 0 mm 2 mps 675 mmHg 39%
22:00 +16°C° 0 mm 2 mps 675 mmHg 42%
23:00 +14°C° 0 mm 2 mps 675 mmHg 44%

Tomorrow, 3 July, Friday

Time Temperature Precipitation Wind Pressure Humidity
00:00 +14°C° 0 mm 2 mps 675 mmHg 47%
01:00 +12°C° 0 mm 3 mps 675 mmHg 49%
02:00 +11°C° 0 mm 3 mps 675 mmHg 51%
03:00 +11°C° 0 mm 3 mps 675 mmHg 57%
04:00 +10°C° 0 mm 2 mps 675 mmHg 63%
05:00 +10°C° 0 mm 2 mps 675 mmHg 69%
06:00 +10°C° 0 mm 2 mps 675 mmHg 67%
07:00 +11°C° 0 mm 3 mps 676 mmHg 64%
08:00 +12°C° 0 mm 3 mps 677 mmHg 62%
09:00 +17°C° 0 mm 3 mps 677 mmHg 49%
10:00 +21°C° 0 mm 4 mps 678 mmHg 36%
11:00 +26°C° 0 mm 4 mps 679 mmHg 23%
12:00 +27°C° 0 mm 4 mps 678 mmHg 21%
13:00 +28°C° 0 mm 4 mps 678 mmHg 18%
14:00 +29°C° 0 mm 4 mps 677 mmHg 16%
15:00 +29°C° 0 mm 4 mps 677 mmHg 18%
16:00 +29°C° 0 mm 3 mps 676 mmHg 19%
17:00 +28°C° 0 mm 3 mps 676 mmHg 20%
18:00 +25°C° 0 mm 3 mps 676 mmHg 25%
19:00 +21°C° 0 mm 3 mps 676 mmHg 30%
20:00 +18°C° 0 mm 2 mps 676 mmHg 36%
21:00 +17°C° 0 mm 2 mps 676 mmHg 38%
22:00 +16°C° 0 mm 2 mps 676 mmHg 40%
23:00 +16°C° 0 mm 2 mps 676 mmHg 42%

Day after tomorrow, 4 July, Saturday

Time Temperature Precipitation Wind Pressure Humidity
00:00 +14°C° 0 mm 2 mps 676 mmHg 47%
01:00 +13°C° 0 mm 2 mps 676 mmHg 51%
02:00 +12°C° 0 mm 2 mps 676 mmHg 55%
03:00 +12°C° 0 mm 2 mps 675 mmHg 59%
04:00 +10°C° 0 mm 2 mps 675 mmHg 63%
05:00 +10°C° 0 mm 2 mps 675 mmHg 67%
06:00 +12°C° 0 mm 2 mps 676 mmHg 62%
07:00 +12°C° 0 mm 3 mps 677 mmHg 57%
08:00 +13°C° 0 mm 3 mps 678 mmHg 52%
09:00 +18°C° 0 mm 4 mps 678 mmHg 43%
10:00 +21°C° 0 mm 4 mps 679 mmHg 35%
11:00 +26°C° 0 mm 5 mps 679 mmHg 26%
12:00 +27°C° 0 mm 5 mps 679 mmHg 23%
13:00 +29°C° 0 mm 4 mps 678 mmHg 21%
14:00 +30°C° 0 mm 4 mps 678 mmHg 18%
15:00 +30°C° 0 mm 4 mps 677 mmHg 18%
16:00 +29°C° 0 mm 4 mps 677 mmHg 18%
17:00 +29°C° 0 mm 4 mps 676 mmHg 18%
18:00 +26°C° 0 mm 3 mps 676 mmHg 23%
19:00 +21°C° 0 mm 3 mps 676 mmHg 28%
20:00 +18°C° 0 mm 3 mps 676 mmHg 33%
21:00 +17°C° 0 mm 3 mps 676 mmHg 35%
22:00 +17°C° 0 mm 3 mps 676 mmHg 37%
23:00 +16°C° 0 mm 3 mps 676 mmHg 39%

5 July, Sunday

Time Temperature Precipitation Wind Pressure Humidity
00:00 +14°C° 0 mm 3 mps 676 mmHg 42%
01:00 +13°C° 0 mm 3 mps 676 mmHg 44%
02:00 +12°C° 0 mm 3 mps 675 mmHg 47%
03:00 +11°C° 0 mm 3 mps 675 mmHg 51%
04:00 +10°C° 0 mm 2 mps 675 mmHg 54%
05:00 +9°C° 0 mm 2 mps 675 mmHg 58%
06:00 +10°C° 0 mm 2 mps 676 mmHg 55%
07:00 +11°C° 0 mm 3 mps 676 mmHg 51%
08:00 +12°C° 0 mm 3 mps 677 mmHg 48%
09:00 +17°C° 0 mm 3 mps 678 mmHg 39%
10:00 +20°C° 0 mm 4 mps 678 mmHg 30%
11:00 +25°C° 0 mm 5 mps 679 mmHg 21%
12:00 +27°C° 0 mm 4 mps 678 mmHg 19%
13:00 +28°C° 0 mm 4 mps 678 mmHg 17%
14:00 +30°C° 0 mm 4 mps 677 mmHg 15%
15:00 +30°C° 0 mm 4 mps 677 mmHg 15%
16:00 +29°C° 0 mm 4 mps 676 mmHg 15%
17:00 +29°C° 0 mm 3 mps 676 mmHg 15%
18:00 +26°C° 0 mm 3 mps 675 mmHg 19%
19:00 +21°C° 0 mm 3 mps 675 mmHg 23%
20:00 +18°C° 0 mm 3 mps 675 mmHg 26%
21:00 +17°C° 0 mm 3 mps 675 mmHg 28%
22:00 +16°C° 0 mm 3 mps 675 mmHg 30%
23:00 +16°C° 0 mm 3 mps 676 mmHg 32%

6 July, Monday

Time Temperature Precipitation Wind Pressure Humidity
00:00 +13°C° 0 mm 3 mps 675 mmHg 36%
01:00 +12°C° 0 mm 3 mps 675 mmHg 41%
02:00 +11°C° 0 mm 3 mps 675 mmHg 45%
03:00 +10°C° 0 mm 3 mps 675 mmHg 50%
04:00 +9°C° 0 mm 3 mps 674 mmHg 54%
05:00 +8°C° 0 mm 2 mps 674 mmHg 59%
06:00 +9°C° 0 mm 2 mps 675 mmHg 57%
07:00 +10°C° 0 mm 3 mps 676 mmHg 55%
08:00 +11°C° 0 mm 3 mps 676 mmHg 52%
09:00 +15°C° 0 mm 4 mps 677 mmHg 42%
10:00 +20°C° 0 mm 4 mps 678 mmHg 32%
11:00 +25°C° 0 mm 5 mps 678 mmHg 21%
12:00 +27°C° 0 mm 5 mps 678 mmHg 19%
13:00 +28°C° 0 mm 4 mps 677 mmHg 16%
14:00 +30°C° 0 mm 4 mps 677 mmHg 13%
15:00 +29°C° 0 mm 4 mps 676 mmHg 13%
16:00 +29°C° 0 mm 3 mps 676 mmHg 13%
17:00 +29°C° 0 mm 3 mps 675 mmHg 13%
18:00 +25°C° 0 mm 3 mps 675 mmHg 18%
19:00 +21°C° 0 mm 2 mps 675 mmHg 22%
20:00 +17°C° 0 mm 2 mps 675 mmHg 26%
21:00 +16°C° 0 mm 2 mps 675 mmHg 27%
22:00 +15°C° 0 mm 2 mps 675 mmHg 29%
23:00 +15°C° 0 mm 2 mps 675 mmHg 30%

7 July, Tuesday

Time Temperature Precipitation Wind Pressure Humidity
00:00 +14°C° 0 mm 2 mps 675 mmHg 32%
01:00 +13°C° 0 mm 2 mps 675 mmHg 34%
02:00 +12°C° 0 mm 2 mps 674 mmHg 37%
03:00 +10°C° 0 mm 2 mps 674 mmHg 41%
04:00 +9°C° 0 mm 2 mps 674 mmHg 46%
05:00 +8°C° 0 mm 2 mps 674 mmHg 51%
06:00 +9°C° 0 mm 2 mps 675 mmHg 49%
07:00 +10°C° 0 mm 3 mps 675 mmHg 48%
08:00 +11°C° 0 mm 3 mps 676 mmHg 46%
09:00 +15°C° 0 mm 4 mps 677 mmHg 36%
10:00 +21°C° 0 mm 4 mps 677 mmHg 26%
11:00 +26°C° 0 mm 5 mps 678 mmHg 15%
12:00 +27°C° 0 mm 5 mps 678 mmHg 14%
13:00 +29°C° 0 mm 4 mps 677 mmHg 13%
14:00 +30°C° 0 mm 4 mps 676 mmHg 11%
15:00 +29°C° 0 mm 4 mps 676 mmHg 12%
16:00 +29°C° 0 mm 3 mps 675 mmHg 12%
17:00 +29°C° 0 mm 3 mps 675 mmHg 13%
18:00 +25°C° 0 mm 3 mps 675 mmHg 16%
19:00 +21°C° 0 mm 3 mps 674 mmHg 20%
20:00 +18°C° 0 mm 2 mps 674 mmHg 24%
21:00 +17°C° 0 mm 2 mps 674 mmHg 27%
22:00 +16°C° 0 mm 2 mps 674 mmHg 30%
23:00 +15°C° 0 mm 2 mps 674 mmHg 34%
Show more